Regional Weather Roundup
Issued by NWS Newport/Morehead, NC

Home | Current Version | Previous Version | Text Only | Print | Product List | Glossary On
Versions: 1 2 3 4 5 6 7 8 9 10 11 12 13 14 15 16 17 18 19 20 21 22 23 24 25 26 27 28 29 30 31 32 33 34 35 36 37 38 39 40 41 42 43 44 45 46 47 48 49 50
111
ASUS42 KMHX 231513
RWRMHX
WEATHER ROUNDUP FOR EASTERN NORTH CAROLINA
NATIONAL WEATHER SERVICE NEWPORT/MOREHEAD CITY NC
1100 AM EDT SUN APR 23 2017

NOTE: "FAIR" INDICATES FEW OR NO CLOUDS BELOW 12,000 FEET
WITH NO SIGNIFICANT WEATHER AND/OR OBSTRUCTIONS TO VISIBILITY

NCZ015>017-031-032-045>047-102-103-231600-
NORTH COAST

CITY           SKY/WX    TMP DP  RH WIND       PRES   REMARKS
EDENTON        CLOUDY    60  53  79 NE6       30.05F
ELIZABETH CITY CLOUDY    58  54  86 NE17G24   30.05S
KITTY HAWK     CLOUDY    59  53  82 NE9G20    30.04R
MANTEO         CLOUDY    57  52  84 NE17G24   30.05R

$$

NCZ045>047-081-094-103-104-231600-
CENTRAL COAST

CITY           SKY/WX    TMP DP  RH WIND       PRES   REMARKS
FRISCO         CLOUDY    61  58  90 NE13G20   30.01R FOG

$$

NCZ095-097-098-100-101-231600-
SOUTHERN COAST

CITY           SKY/WX    TMP DP  RH WIND       PRES   REMARKS
BEAUFORT       CLOUDY    63  61  93 NE9       29.99R
CEDAR ISLAND   NOT AVBL
JACKSONVILLE   CLOUDY    61  59  93 NE14      29.98S
PINEY ISLAND   NOT AVBL
WILMINGTON     HVY RAIN  60  59  96 NE10      29.97R FOG


$$

NCZ011>013-027>030-043-044-078>080-089-090>093-098-231600-
COASTAL PLAIN

CITY           SKY/WX    TMP DP  RH WIND       PRES   REMARKS
AHOSKIE          N/A     55  50  85 NE5       30.07R
CLINTON        CLOUDY    59  56  89 NE7       30.00S
ELIZABETHTOWN  CLOUDY    60  55  84 E6        29.98R
GOLDSBORO      CLOUDY    60  58  96 NE10      29.99S
GREENVILLE     CLOUDY    57  54  88 NE14      30.05R
HAVELOCK       CLOUDY    63  57  81 NE15      30.00
KENANSVILLE    CLOUDY    59  54  82 E6        30.00S
KINSTON        CLOUDY    59  54  82 NE12G18   30.03R
NEW BERN       CLOUDY    60  56  86 NE13      30.02R
RICHLANDS      LGT RAIN  58  57  97 NE12      30.00R
ROCKY MOUNT    CLOUDY    56  55  97 NE10      30.03F
WASHINGTON     CLOUDY    57  54  88 NE9G16    30.03S
WHITEVILLE     CLOUDY    59  57  92 NE12      29.96R

$$

AMZ130-135-150-152-154-156-158-170-250-252-270-ANZ085-086-088-633-658-670-231600-
MARINE OBSERVATIONS

STATION/POSITION TIME  TEMP    WIND        PRES    WAVE   SWELL
                       AIR SEA DIR/SP/G            HT/PER HT/PER
                 (UTC) (F)     (DEG/KT/KT) (MB)    (FT/S) (FT/S)
CHESAPEAKE LIGHT NOT AVBL
64 E VA BEACH    1450   53 54   20/ 12/ 16 1017.9    5/ 7   3/ 7
DUCK             1448   55 63   30/ 19/ 22 1017.1
2 E DUCK         1500      61                N/A     5/ 6   2/12
OREGON INLET     1442   56 61   20/ 13/ 18 1016.7
13E OREGON INLT  1448      58                N/A     6/ 6   3/12
HATTERAS CG      1448   60 69   40/ 13/ 20 1015.7
DIAMOND BUOY     1450   64 74   30/ 17/ 19 1015.4    5/ 6   2/12
CAPE LOOKOUT     1500   62      40/ 21/ 23 1015.2
BEAUFORT LAB     1448   62 66   40/  9/ 13 1014.9
30 SE NEW RVR IN 1408   64      60/ 17/ 23 1015.5
30 SE NEW RVR IN 1443      71                N/A     5/ 5   2/12
27 SE WRIGHTSVLE 1408   67 70   90/ 19/ 25 1013.7
5 SE WRIGHTSVLE  1408   64 68   70/ 14/ 23 1014.3
225 S CAPE HAT   1450   73 75  180/  8/ 10 1015.4    4/11   3/11
41 SE CHARLESTON 1450   74 74  210/  8/ 10 1012.5    3/13   3/13

$$




USA.gov is the U.S. government's official web portal to all federal, state and local government web resources and services.